Other Public Products
Issued by NWS Grand Forks, ND

Home | Current Version | Previous Version | Text Only | Print | Product List | Glossary On
Versions: 1 2 3 4 5 6 7 8 9 10 11 12 13 14 15 16 17 18 19 20 21 22 23 24 25 26 27 28 29 30 31 32 33 34 35 36 37 38 39 40 41 42 43 44 45 46 47 48 49 50
000
FPUS83 KFGF 240131
OPUFGF
PRAIRIE TO PINES WEATHER ROUNDUP
NATIONAL WEATHER SERVICE EASTERN NORTH DAKOTA/GRAND FORKS ND
700 PM CST MON JAN 23 2017

 **SATELLITE DATA USED TO AUGMENT SKY COVER AT AUTOMATED STATIONS**
 *****  WEATHER ACROSS EASTERN NORTH DAKOTA  *****

CITY           SKY/WX    TMP DP  RH WIND       PRES   REMARKS
GRAND FORKS    CLOUDY    30  22  72 W10       29.81S WCI  21
GRAND FORKS AF CLOUDY    29  22  76 NW10      29.81S WCI  19
GRAND CITY NWS NOT AVBL
BUXTON           N/A     30  27  88 SW6         N/A  WCI  24
DEVILS LAKE    CLOUDY    23  19  85 W17       29.79S WCI   9
FARGO          CLOUDY    33  26  75 NW5       29.83S
WAHPETON ARPT  CLOUDY    32  28  86 W3        29.84S
$$

 *****  WEATHER ACROSS CENTRAL AND WESTERN NORTH DAKOTA  *****

CITY           SKY/WX    TMP DP  RH WIND       PRES   REMARKS
JAMESTOWN      CLOUDY    29  24  82 SW3       29.79S
BISMARCK       CLOUDY    31  24  75 CALM      29.81R
MINOT          CLOUDY    24  18  77 W12       29.78S WCI  13
MINOT AFB      CLOUDY    22  18  85 NW16      29.78R WCI   8
GARRISON         N/A     24  20  84 NW7       29.79R WCI  16
WILLISTON      CLOUDY    21  18  88 W5        29.82R WCI  15
DICKINSON      CLOUDY    23  20  88 CALM      29.74S
HETTINGER      CLOUDY    21  20  96 NE7       29.77R FOG     WCI  12
$$

 *****  OTHER OBSERVATIONS NORTHEAST NORTH DAKOTA  *****

CITY           SKY/WX    TMP DP  RH WIND       PRES   REMARKS
WALHALLA       NOT AVBL
LANGDON        NOT AVBL
CAVALIER       CLOUDY    28  23  80 SW7       29.78R WCI  21
GRAFTON        CLOUDY    27  23  86 W15       29.82S WCI  15
CANDO          NOT AVBL
FORT TOTTEN      N/A     23  22  95 NW7       29.95S WCI  15
ROLLA            N/A    N/A N/A N/A MISG        N/A
RUGBY            N/A     23  19  86 W10       29.78S WCI  12
 ***** THE ABOVE OBSERVATIONS ARE NON NWS ARE NOT QUALITY
        CONTROLLED AND MAY MIS-REPORT RAIN FOR SNOW...
$$

 *****  OTHER OBSERVATIONS SOUTHEAST NORTH DAKOTA *****

CITY           SKY/WX    TMP DP  RH WIND       PRES   REMARKS
COOPERSTOWN    CLOUDY    28  25  86 W10       29.80S WCI  19
VALLEY CITY    CLOUDY    28  28 100 SW3       29.82S
OAKES          NOT AVBL
GWINNER        CLOUDY    32  28  86 N3        29.83S
SHEYENNE NWR     N/A     30  24  78 N2        29.95S
BUFFALO          N/A     29  21  70 CALM        N/A
WYNDMERE         N/A     32  28  86 W2          N/A
 ***** THE ABOVE OBSERVATIONS ARE NON NWS ARE NOT QUALITY
       CONTROLLED AND MAY MIS-REPORT RAIN FOR SNOW...
$$

  *****  WEATHER ACROSS NORTHERN MINNESOTA  *****

CITY           SKY/WX    TMP DP  RH WIND       PRES   REMARKS
FLAG ISLAND    CLOUDY    28  25  86 SW9       29.77R WCI  20
WARROAD        CLOUDY    28  25  86 SW9       29.79S WCI  20
ROSEAU         CLOUDY    30  25  80 SW7       29.78S WCI  23
HALLOCK        CLOUDY    28  25  86 SW9       29.79R WCI  20
THF RVR FALLS    N/A     28  23  81 W9        29.82R WCI  19
HALSTAD          N/A     30  25  81 CALM        N/A
FOSSTON        CLOUDY    27  23  86 W6        29.82S WCI  20
BAUDETTE       CLOUDY    29  23  78 SW7       29.78S WCI  22
WASKISH        CLOUDY    30  27  86 W3        29.80S
CROOKSTON      CLOUDY    28  27  93 S5        29.83S WCI  23
$$
  *****  WEATHER ACROSS CENTRAL AND WEST MINNESOTA  *****

CITY           SKY/WX    TMP DP  RH WIND       PRES   REMARKS
BEMIDJI        CLOUDY    30  24  78 W8        29.80R WCI  22
PARK RAPIDS    CLOUDY    31  23  72 W5        29.80S
WADENA         CLOUDY    30  25  80 CALM      29.81S
DETROIT LAKES  CLOUDY    32  28  86 CALM      29.82S
MOORHEAD       CLOUDY    30  27  86 NW3       29.85R
FERGUS FALLS   CLOUDY    30  27  86 W3        29.87S
ELBOW LAKE     CLOUDY    31  26  82 NW3       29.83S HAZE
MORRIS MN      CLOUDY    30  27  86 CALM      29.83S
STAPLES        CLOUDY    30  25  80 CALM      29.82S
WHEATON        CLOUDY    30  27  86 CALM      29.86S
$$
  *****  WEATHER ELSEWHERE ACROSS MINNESOTA  *****

CITY           SKY/WX    TMP DP  RH WIND       PRES   REMARKS
DULUTH         CLOUDY    33  32  96 NW6       29.78S
INTRNTL FALLS  CLOUDY    32  27  81 CALM      29.78S
ELY            MIX PCPN  32  32 100 W3        29.78R
CLOQUET        CLOUDY    34  30  86 NW5       29.79S
BRAINERD       CLOUDY    31  26  82 NW5       29.82S
HIBBING        CLOUDY    30  29  96 W5        29.79S
ALEXANDRIA     CLOUDY    30  25  81 N3        29.83S
SAINT CLOUD    CLOUDY    32  27  81 CALM      29.82F
MINNEAPOLIS    CLOUDY    34  29  82 NW5       29.83F
$$

  *****  WEATHER ACROSS SOUTH DAKOTA  *****

CITY           SKY/WX    TMP DP  RH WIND       PRES   REMARKS
SIOUX FALLS    CLOUDY    31  29  92 E8        29.81S WCI  23
BROOKINGS      CLOUDY    30  27  88 E6        29.80S WCI  24
WATERTOWN      CLOUDY    28  26  92 E5        29.80S WCI  23
HURON          CLOUDY    31  29  92 E6        29.79R
SISSETON         N/A     32  29  88 S6        29.83S
ABERDEEN       CLOUDY    29  26  89 NE6       29.81F FOG     WCI  23
MITCHELL       CLOUDY    32  29  88 SE12      29.80R WCI  23
PIERRE         CLOUDY    29  26  89 E10       29.73R WCI  20
MOBRIDGE       LGT SNOW  29  24  82 E9        29.75R WCI  20
RAPID CITY     CLOUDY    23  20  88 N14       29.70R WCI  11
$$

  *****  SOME WEATHER IN NEARBY STATES *****

CITY           SKY/WX    TMP DP  RH WIND       PRES   REMARKS
GLASGOW MT     CLOUDY    23  19  85 W9        29.81R WCI  13
GREAT FALLS MT CLOUDY    20  16  84 CALM      29.79R
CHEYENNE WY    LGT SNOW  34  29  82 NE10      29.54R
SCOTTSBLUFF NE CLOUDY    39  26  59 CALM      29.57R
OMAHA NE       CLOUDY    33  27  78 SE9       29.83R
DES MOINES IA  CLOUDY    34  28  79 NE3       29.85S
DAVENPORT IA   CLOUDY    36  33  89 NW9       29.85R
CHICAGO IL     CLOUDY    40  35  83 NW10      29.78R
EAU CLAIRE WI  CLOUDY    33  33 100 CALM      29.82R FOG
LA CROSSE WI   CLOUDY    37  33  85 N3        29.83S
$$

  *****  SOME NATIONAL WEATHER *****

CITY           SKY/WX    TMP DP  RH WIND       PRES   REMARKS
LA GUARDIA NY  RAIN      38  35  89 NE25G31   29.63F
RALEIGH NC     CLOUDY    48  43  82 N9G17     29.39R
ATLANTA GA     MOCLDY    52  45  77 NW17G28   29.63R
NEW ORLEANS LA FAIR      60  48  64 NW6       29.88R
OKLAHOMA CITY  FAIR      48  32  53 SE10      29.72F
ALBUQUERQUE NM FAIR      52  22  30 SW13      29.71S
SALT LAKE CITY FLURRIES  33  31  92 W10       29.58R WCI  25
LOS ANGELES CA FAIR      53  44  71 W22       29.85R
BOISE ID       CLOUDY    30  25  81 NW12      29.66R WCI  20
SEATTLE WA     FAIR      42  36  79 N7        29.90R
$$

*** WEATHER ACROSS MANITOBA...SASKATCHEWAN AND ONTARIO ***
                ***ONTARIO***

CITY           SKY/WX    TMP DP  RH WIND       PRES   REMARKS
GERALDTON      DRZL/FOG  34  34 100 SE3       29.76R VSB 1/8
THUNDER BAY    CLOUDY    34  34 100 VRB2      29.79R
SIOUX LOOKOUT  SNOW      34  32  93 S2        29.74S VSB 1/2
TORONTO        CLOUDY    37  32  81 E10       29.80S
BIG TROUT LK   CLOUDY    25  23  93 E5        29.79F WCI  19
PICKLE LAKE    LGT SNOW  30  28  93 S3        29.75R FOG
DRYDEN         FLURRIES  32  32 100 W8        29.74  WCI  25
KENORA         FRZ DRZL  30  30 100 S8        29.74S FOG     WCI  23
$$
                *** MANITOBA***

CITY           SKY/WX    TMP DP  RH WIND       PRES   REMARKS
BRANDON        FLURRIES  23  19  86 W13       29.73R WCI  11
DAUPHIN        FLURRIES  27  25  93 W9        29.70R WCI  17
ISLAND LAKE    FLURRIES  32  30  93 VRB2      29.73F
PILOT MOUND      N/A     23  19  86 W7          N/A  WCI  15
THE PAS        FLURRIES  19  14  79 N10       29.82S WCI   8
THOMPSON       FLURRIES  16  12  86 N7        29.84F WCI   6
WINNIPEG       FLURRIES  28  25  86 SW12      29.75R WCI  18
LYNN LAKE      FLURRIES   7   5  92 N6        29.89S WCI  -3
CHURCHILL      FLURRIES  16  16 100 E23G29    30.02S WCI  -2
GILLAM         LGT SNOW  21  19  93 NE8       29.86S WCI  12
$$
                ***SASKATCHEWAN***

CITY           SKY/WX    TMP DP  RH WIND       PRES   REMARKS
ESTEVAN        FLURRIES  21  19  93 W8        29.77S WCI  12
KINDERSLEY     MOCLDY    10   7  85 NW6       29.84R WCI   1
LLOYDMINSTER   FLURRIES   7   5  92 NW8       29.86S WCI  -6
PRINCE ALBERT  LGT SNOW  14  10  85 N8        29.84S WCI   3
REGINA         CLOUDY    18  14  86 NW13      29.78S WCI   4
YORKTON        CLOUDY    21  18  86 NW15      29.72R WCC1F1C2F2C3F3C4F4C5F5C6F6C7F7C8F8C9F9CaFaCbFbCcFcCdFdCe!



USA.gov is the U.S. government's official web portal to all federal, state and local government web resources and services.